This is the latest recevied weather packets stored in our database for station/object K1BES. If no packets are shown the sender has not sent any weather packets the latest 10 day(s).
| Time | Temp. | Humidity | Pressure | Rain* | Wind** | Luminosity | Snow |
|---|---|---|---|---|---|---|---|
| 1787616861 | 28.89° C | 76% | 1018.2 hPa | 0 mm | - | 0 W/m² | - |
| 1787616560 | 28.89° C | 76% | 1018.4 hPa | 0 mm | - | 0 W/m² | - |
| 1787616259 | 28.89° C | 75% | 1018.1 hPa | 0 mm | - | 1 W/m² | - |
| 1787615957 | 29.44° C | 74% | 1018.2 hPa | 0 mm | - | 2 W/m² | - |
| 1787615653 | 29.44° C | 73% | 1018.1 hPa | 0 mm | - | 5 W/m² | - |
| 1787615347 | 29.44° C | 72% | 1018.1 hPa | 0 mm | - | 10 W/m² | - |
| 1787615044 | 29.44° C | 71% | 1018.3 hPa | 0 mm | - | 14 W/m² | - |
| 1787614739 | 30° C | 71% | 1018.1 hPa | 0 mm | - | 21 W/m² | - |
| 1787614436 | 30° C | 72% | 1018.3 hPa | 0 mm | - | 28 W/m² | - |
| 1787614133 | 30° C | 72% | 1018.1 hPa | 0 mm | - | 33 W/m² | - |
| 1787613829 | 30° C | 73% | 1018 hPa | 0 mm | - | 39 W/m² | - |
| 1787613524 | 30° C | 73% | 1017.9 hPa | 0 mm | - | 42 W/m² | - |
| 1787613219 | 30.56° C | 72% | 1017.7 hPa | 0 mm | - | 45 W/m² | - |
| 1787612916 | 30.56° C | 71% | 1017.7 hPa | 0 mm | - | 47 W/m² | - |
| 1787612612 | 30.56° C | 72% | 1017.8 hPa | 0 mm | - | 50 W/m² | - |
| 1787612308 | 30.56° C | 71% | 1017.8 hPa | 0 mm | - | 50 W/m² | - |
| 1787612004 | 30.56° C | 72% | 1017.6 hPa | 0 mm | - | 52 W/m² | - |
| 1787611700 | 30.56° C | 70% | 1017.9 hPa | 0 mm | - | 53 W/m² | - |
| 1787611396 | 31.11° C | 71% | 1017.8 hPa | 0 mm | - | 51 W/m² | - |
| 1787611090 | 31.11° C | 71% | 1017.8 hPa | 0 mm | - | 52 W/m² | - |
| 1787610787 | 31.11° C | 70% | 1017.6 hPa | 0 mm | - | 52 W/m² | - |
| 1787610482 | 31.11° C | 68% | 1017.7 hPa | 0 mm | - | 51 W/m² | - |
| 1787610181 | 31.11° C | 70% | 1017.8 hPa | 0 mm | - | 55 W/m² | - |
| 1787609881 | 31.11° C | 70% | 1017.5 hPa | 0 mm | - | 52 W/m² | - |
| 1787609581 | 31.11° C | 69% | 1017.7 hPa | 0 mm | - | 51 W/m² | - |
* Rain latest hour (hover to see other rain measurements)
** Current wind speed in m/s (hover to see current wind gust speed)